[[{"header":{"parameterUnit":"m.s-1","parameterCategory":1,"la1":30.2991,"la2":30.254,"lo1":-89.0895,"lo2":-89.0444,"dy":0.0017,"dx":0.0017,"nx":28,"ny":28,"refTime":"2023-09-26T09:00:00:Z","depth":0,"parameterNumber":2,"parameterNumberName":"U-component_of_WINDS"},"data":[0,0,0,0,0,0,0,0,0,0,0,0,0,0,0,0,0,0,0,0,0,0,0,0,0,0,0,0,0,0,0,0,0,0,0,0,0,0,0,0,0,0,0,0,0,0,0,0,0,0,0,0,0,0,0,0,0,0,-2.8455,-2.8454,0,-2.836,-2.8359,-2.8358,-2.8226,-2.8224,-2.8221,-2.8219,-2.8121,-2.812,-2.812,0,0,0,0,0,0,0,0,0,0,0,0,0,-2.8523,-2.8522,-2.8455,-2.8454,-2.8453,-2.836,-2.8359,-2.8357,-2.8226,-2.8223,-2.8221,-2.8218,-2.8121,-2.812,-2.812,0,0,0,0,0,0,0,0,0,0,0,0,0,-2.8467,-2.8522,-2.8456,-2.8376,-2.8368,-2.836,-2.8359,-2.8357,-2.8227,-2.8223,-2.822,-2.8217,-2.8121,-2.812,-2.812,-2.8181,0,0,-2.8117,-2.8117,0,0,0,0,0,0,0,0,-2.847,-2.8465,-2.8389,-2.8382,-2.8373,-2.8301,-2.8346,-2.8298,-2.8228,-2.828,-2.8219,-2.8215,-2.8183,-2.8177,-2.8167,-2.8177,-2.8172,-2.8117,-2.8116,-2.8116,-2.8116,0,0,0,0,0,0,0,-2.8474,-2.8468,-2.8417,-2.8388,-2.8378,-2.8345,-2.8334,-2.8337,-2.8252,-2.8276,-2.8266,-2.8256,-2.8178,-2.8168,-2.8163,-2.8171,-2.8117,-2.8116,-2.8116,-2.8115,-2.8226,-2.8229,0,0,0,0,0,0,-2.849,-2.8472,-2.842,-2.8415,-2.8414,-2.8347,-2.8334,-2.8328,-2.8251,-2.8237,-2.8259,-2.8251,-2.8171,-2.8165,-2.8159,-2.8226,-2.8116,-2.8115,-2.8115,-2.8222,-2.8226,-2.823,0,0,0,0,0,0,-2.8492,-2.8487,-2.8424,-2.8441,-2.843,-2.8349,-2.8343,-2.8327,-2.8317,-2.8239,-2.8223,-2.8264,-2.8168,-2.8161,-2.8177,-2.8221,-2.8115,-2.8114,-2.8218,-2.8224,-2.8228,-2.836,0,0,0,0,0,0,-2.8495,-2.8488,-2.8511,-2.8442,-2.843,-2.8444,-2.8346,-2.8328,-2.8316,-2.8304,-2.824,-2.8226,-2.8165,-2.8179,-2.8176,-2.8218,-2.8114,-2.8214,-2.8221,-2.8227,-2.8352,-2.8369,-2.8384,0,0,0,0,0,-2.8498,-2.8552,-2.8513,-2.8508,-2.8457,-2.8447,-2.844,-2.8369,-2.832,-2.8342,-2.8292,-2.8228,-2.8217,-2.8181,-2.8177,-2.8219,-2.8211,-2.8219,-2.8226,-2.8344,-2.8366,-2.8384,0,0,0,0,0,0,-2.8629,-2.8542,-2.8497,-2.8532,-2.8498,-2.8425,-2.845,-2.8394,-2.8373,-2.8362,-2.8275,-2.8261,-2.8288,-2.8255,-2.8218,-2.8275,-2.8204,-2.8211,-2.8295,-2.8315,-2.8331,-2.8338,-2.8113,0,0,0,0,0,-2.8662,-2.8661,-2.8585,-2.8622,-2.8608,-2.8533,-2.8525,-2.8474,-2.8435,-2.842,-2.8371,-2.8335,-2.8323,-2.8317,-2.8302,-2.8346,-2.833,-2.8373,-2.839,-2.8404,-2.8411,-2.843,-2.8449,-2.8255,-2.8255,-2.8255,0,0,-2.8729,-2.8682,-2.8687,-2.8647,-2.8615,-2.8616,-2.8521,-2.8526,-2.8526,-2.842,-2.8432,-2.8395,-2.835,-2.838,-2.8391,-2.8353,-2.846,-2.8413,-2.8425,-2.8424,-2.844,-2.8459,-2.8475,-2.8261,-2.826,-2.8259,0,0,-2.8853,-2.8818,-2.8844,-2.8814,-2.8766,-2.8716,-2.8723,-2.8658,-2.8629,-2.864,-2.8561,-2.8559,-2.8541,-2.8511,-2.8494,-2.8607,-2.8546,-2.8604,-2.869,-2.871,-2.8725,-2.8738,-2.8778,-2.8793,-2.8612,-2.8612,-2.8612,0,-2.8943,-2.8942,-2.8865,-2.8875,-2.886,-2.8765,-2.8791,-2.8765,-2.8715,-2.8706,-2.8665,-2.864,-2.8603,-2.8624,-2.8652,-2.8642,-2.8646,-2.8611,-2.873,-2.8742,-2.8753,-2.8789,-2.8804,-2.8619,-2.8619,-2.8618,-2.8617,0,-2.9054,-2.9055,-2.9082,-2.9036,-2.9024,-2.9042,-2.8968,-2.8965,-2.8915,-2.8869,-2.888,-2.8832,-2.8806,-2.8807,-2.8758,-2.8822,-2.88,-2.8746,-2.8672,-2.878,-2.8813,-2.8826,-2.863,-2.8627,-2.8625,-2.8623,0,0,-2.9258,-2.9169,-2.9181,-2.9158,-2.9099,-2.9097,-2.9111,-2.9085,-2.9083,-2.9052,-2.9061,-2.9048,-2.8997,-2.8978,-2.8924,-2.8942,-2.9034,-2.8885,-2.8883,-2.8914,-2.91,-2.9141,-2.9158,-2.8994,-2.8996,-2.8998,-2.9103,0,-2.9369,-2.9388,-2.9319,-2.9355,-2.9354,-2.9264,-2.9275,-2.924,-2.9197,-2.919,-2.9142,-2.9134,-2.9068,-2.9056,-2.907,-2.902,-2.907,-2.9011,-2.9,-2.9,-2.9013,-2.9175,-2.9218,-2.932,-2.9116,-2.9118,-2.9119,0,-2.9502,-2.9478,-2.9514,-2.9452,-2.9448,-2.946,-2.9431,-2.9425,-2.9382,-2.935,-2.9329,-2.9267,-2.9275,-2.9206,-2.9216,-2.9178,-2.9169,-2.9144,-2.9146,-2.9141,-2.9066,-2.9174,-2.9351,-2.9366,-2.9139,-2.9137,-2.9136,0,-2.9645,-2.9622,-2.964,-2.9624,-2.9552,-2.9563,-2.9533,-2.9487,-2.9476,-2.945,-2.9442,-2.9417,-2.9404,-2.9386,-2.9319,-2.9275,-2.9336,-2.9262,-2.9309,-2.9311,-2.9325,-2.9325,-2.9502,-2.9322,-2.9321,-2.9321,-2.9321,0,-2.9776,-2.9802,-2.9703,-2.9715,-2.974,-2.9662,-2.9689,-2.965,-2.9611,-2.9612,-2.9533,-2.9536,-2.9448,-2.9441,-2.9388,-2.9404,-2.9398,-2.9372,-2.9357,-2.9378,-2.9382,-2.9371,-2.9362,-2.9325,-2.9324,-2.9323,-2.9323,0,-2.9941,-2.9876,-2.989,-2.9821,-2.9804,-2.9826,-2.9766,-2.9774,-2.9726,-2.9729,-2.9725,-2.9651,-2.9639,-2.957,-2.9542,-2.9507,-2.954,-2.9512,-2.9555,-2.9545,-2.9596,-2.9592,-2.9771,-2.979,-2.9599,-2.9601,-2.9603,0,-3.0028,-3.0046,-2.9979,-2.9974,-2.9949,-2.9943,-2.9931,-2.9854,-2.9844,-2.9797,-2.981,-2.9792,-2.9773,-2.9757,-2.97,-2.9678,-2.9648,-2.9712,-2.9644,-2.9664,-2.9648,-2.9647,-2.9648,-2.9727,-2.9729,-2.9731,-2.9733,0,-3.019,-3.0158,-3.0143,-3.0119,-3.0107,-3.0083,-3.0055,-3.0056,-2.997,-2.9964,-2.995,-2.9936,-2.9907,-2.9889,-2.9858,-2.9826,-2.9766,-2.9755,-2.9765,-2.9786,-2.981,-2.9796,-2.9594,-2.9751,-2.9749,-2.9748,-2.9747,-2.9746,-3.0318,-3.0329,-3.0284,-3.027,-3.0241,-3.0217,-3.022,-3.0173,-3.016,-3.0131,-3.0087,-3.008,-3.0036,-2.9987,-2.996,-2.9953,-2.9918,-2.9932,-2.9936,-2.994,-2.9951,-2.9812,-2.9947,-2.9946,-2.9946,-2.9945,-2.9945,0,-3.0475,-3.0441,-3.043,-3.0393,-3.0383,-3.0327,-3.0293,-3.0288,-3.0283,-3.0247,-3.023,-3.0215,-3.0197,-3.0139,-3.0115,-3.012,-3.0092,-3.0117,-3.0115,-3.0108,-2.9984,-2.9977,-3.014,-3.014,-3.014,-3.014,-3.014,-3.014,-3.0555,-3.0571,-3.0533,-3.0533,-3.0498,-3.0491,-3.0476,-3.0453,-3.0424,-3.0411,-3.0396,-3.0358,-3.0313,-3.0285,-3.0266,-3.0249,-3.0244,-3.0278,-3.0252,-3.0136,-3.0117,-3.01,-3.0093,-3.0278,-3.0278,-3.0377,-3.0378,-3.0379]},{"header":{"parameterUnit":"m.s-1","parameterCategory":1,"la1":30.2991,"la2":30.254,"lo1":-89.0895,"lo2":-89.0444,"dy":0.0017,"dx":0.0017,"nx":28,"ny":28,"refTime":"2023-09-26T09:00:00:Z","depth":0,"parameterNumber":3,"parameterNumberName":"V-component_of_WINDS"},"data":[0,0,0,0,0,0,0,0,0,0,0,0,0,0,0,0,0,0,0,0,0,0,0,0,0,0,0,0,0,0,0,0,0,0,0,0,0,0,0,0,0,0,0,0,0,0,0,0,0,0,0,0,0,0,0,0,0,0,-2.3956,-2.3957,0,-2.4022,-2.4023,-2.4023,-2.3992,-2.399,-2.3989,-2.3987,-2.4052,-2.4055,-2.4058,0,0,0,0,0,0,0,0,0,0,0,0,0,-2.3802,-2.3805,-2.3956,-2.3957,-2.3958,-2.4022,-2.4023,-2.4023,-2.3992,-2.399,-2.3988,-2.3986,-2.4051,-2.4054,-2.4058,0,0,0,0,0,0,0,0,0,0,0,0,0,-2.3868,-2.3806,-2.3956,-2.395,-2.395,-2.4022,-2.4023,-2.4024,-2.3993,-2.399,-2.3988,-2.3985,-2.4049,-2.4054,-2.4059,-2.4139,0,0,-2.4074,-2.4076,0,0,0,0,0,0,0,0,-2.3864,-2.3874,-2.395,-2.3951,-2.3951,-2.3996,-2.3992,-2.4062,-2.3993,-2.3977,-2.3987,-2.3984,-2.4035,-2.4041,-2.4059,-2.4142,-2.4145,-2.4074,-2.4077,-2.4079,-2.4081,0,0,0,0,0,0,0,-2.386,-2.3871,-2.3982,-2.3951,-2.3952,-2.3943,-2.395,-2.4005,-2.4019,-2.3978,-2.3976,-2.3984,-2.4035,-2.4054,-2.406,-2.4146,-2.4074,-2.4078,-2.4081,-2.4083,-2.4299,-2.4301,0,0,0,0,0,0,-2.3856,-2.3867,-2.398,-2.3984,-2.3901,-2.3948,-2.3956,-2.3984,-2.4018,-2.4021,-2.3986,-2.3982,-2.4047,-2.4054,-2.4062,-2.4159,-2.4079,-2.4084,-2.4087,-2.4296,-2.4299,-2.4302,0,0,0,0,0,0,-2.3852,-2.3866,-2.3977,-2.3925,-2.3939,-2.3953,-2.3986,-2.3987,-2.4006,-2.4025,-2.4027,-2.4003,-2.4045,-2.4055,-2.412,-2.416,-2.4086,-2.4091,-2.4293,-2.4297,-2.4301,-2.4352,0,0,0,0,0,0,-2.3848,-2.3865,-2.3896,-2.3926,-2.3942,-2.4035,-2.3988,-2.399,-2.4015,-2.4011,-2.4041,-2.4044,-2.4044,-2.4113,-2.4125,-2.4166,-2.4094,-2.4289,-2.4295,-2.43,-2.4347,-2.4357,-2.4366,0,0,0,0,0,-2.3843,-2.3907,-2.3898,-2.3912,-2.3981,-2.4038,-2.4046,-2.4046,-2.4018,-2.4049,-2.4061,-2.4043,-2.4154,-2.412,-2.4134,-2.4176,-2.4287,-2.4293,-2.4299,-2.4342,-2.4355,-2.4366,0,0,0,0,0,0,-2.388,-2.3911,-2.3901,-2.3977,-2.4005,-2.4032,-2.4071,-2.406,-2.4095,-2.409,-2.4087,-2.4094,-2.4162,-2.4175,-2.4137,-2.4256,-2.4216,-2.4225,-2.4244,-2.4257,-2.4266,-2.4262,-2.4098,0,0,0,0,0,-2.3898,-2.3942,-2.3966,-2.4031,-2.4046,-2.4057,-2.4081,-2.4079,-2.4107,-2.4118,-2.4135,-2.4163,-2.4204,-2.4231,-2.427,-2.4349,-2.4355,-2.4384,-2.4394,-2.4402,-2.441,-2.4453,-2.4467,-2.4323,-2.4323,-2.4323,0,0,-2.3934,-2.3956,-2.3984,-2.4039,-2.4061,-2.4106,-2.4067,-2.4116,-2.415,-2.4126,-2.4189,-2.4202,-2.4233,-2.4305,-2.4338,-2.4319,-2.4451,-2.441,-2.4417,-2.442,-2.4461,-2.4475,-2.4487,-2.4327,-2.4326,-2.4326,0,0,-2.4022,-2.4044,-2.4101,-2.4123,-2.4157,-2.4163,-2.4177,-2.4207,-2.4215,-2.4278,-2.4261,-2.4301,-2.4372,-2.4395,-2.4415,-2.4514,-2.4499,-2.4527,-2.4578,-2.462,-2.4631,-2.4641,-2.4677,-2.4689,-2.4535,-2.4535,-2.4535,0,-2.4062,-2.4131,-2.4131,-2.4182,-2.4207,-2.4189,-2.4246,-2.4268,-2.4312,-2.4329,-2.4307,-2.4396,-2.4415,-2.4493,-2.4518,-2.4535,-2.455,-2.4523,-2.463,-2.464,-2.4649,-2.4683,-2.4696,-2.4538,-2.4538,-2.4537,-2.4537,0,-2.4179,-2.4227,-2.4269,-2.4313,-2.4343,-2.4397,-2.4404,-2.4434,-2.4429,-2.4438,-2.4503,-2.4525,-2.4569,-2.4587,-2.4582,-2.4665,-2.4652,-2.463,-2.459,-2.4666,-2.4698,-2.4711,-2.4543,-2.4541,-2.4541,-2.454,0,0,-2.4292,-2.4337,-2.4352,-2.4372,-2.4409,-2.4445,-2.4498,-2.4542,-2.4568,-2.4599,-2.4643,-2.4704,-2.4685,-2.4709,-2.4706,-2.4743,-2.482,-2.4717,-2.4717,-2.4735,-2.4913,-2.4929,-2.4944,-2.481,-2.4813,-2.4815,-2.491,0,-2.4384,-2.4478,-2.448,-2.4566,-2.461,-2.4594,-2.464,-2.4667,-2.4677,-2.4716,-2.4726,-2.477,-2.4741,-2.4755,-2.4791,-2.4803,-2.4856,-2.4796,-2.4851,-2.4853,-2.4844,-2.496,-2.4977,-2.5066,-2.4922,-2.4924,-2.4926,0,-2.4503,-2.4539,-2.463,-2.4661,-2.4679,-2.4721,-2.4762,-2.4799,-2.4829,-2.4834,-2.4861,-2.4853,-2.4907,-2.4866,-2.494,-2.49,-2.4922,-2.4932,-2.4935,-2.494,-2.4894,-2.4968,-2.5094,-2.5108,-2.4945,-2.4944,-2.4942,0,-2.4577,-2.4648,-2.4712,-2.473,-2.4767,-2.4797,-2.4814,-2.4841,-2.4868,-2.4903,-2.492,-2.4961,-2.4983,-2.5014,-2.5018,-2.4987,-2.5092,-2.5051,-2.5097,-2.5097,-2.512,-2.5118,-2.5251,-2.5135,-2.5134,-2.5134,-2.5134,0,-2.4678,-2.4735,-2.4746,-2.4785,-2.4848,-2.4849,-2.4911,-2.4925,-2.495,-2.4991,-2.4979,-2.5018,-2.5021,-2.506,-2.5063,-2.5124,-2.5134,-2.5139,-2.514,-2.5141,-2.514,-2.5155,-2.5149,-2.5138,-2.5137,-2.5136,-2.5136,0,-2.4771,-2.4781,-2.485,-2.488,-2.4889,-2.4934,-2.4959,-2.4996,-2.5005,-2.5058,-2.507,-2.5085,-2.5131,-2.5138,-2.5192,-2.5194,-2.5267,-2.5261,-2.5257,-2.5256,-2.5302,-2.5298,-2.5449,-2.5469,-2.534,-2.5341,-2.5342,0,-2.4835,-2.4878,-2.4914,-2.4941,-2.496,-2.5004,-2.5031,-2.5034,-2.5063,-2.5101,-2.5134,-2.5179,-2.5216,-2.5291,-2.5305,-2.5347,-2.5341,-2.5392,-2.5347,-2.5347,-2.5342,-2.534,-2.5344,-2.54,-2.5401,-2.5402,-2.5403,0,-2.4948,-2.4951,-2.4992,-2.5034,-2.5068,-2.5101,-2.5132,-2.5155,-2.5162,-2.5195,-2.5243,-2.5271,-2.5327,-2.5372,-2.5414,-2.543,-2.5418,-2.5417,-2.543,-2.5432,-2.5428,-2.5431,-2.5281,-2.5414,-2.5413,-2.5412,-2.5411,-2.5411,-2.5029,-2.5067,-2.5098,-2.5143,-2.5167,-2.5197,-2.5234,-2.5249,-2.5289,-2.5335,-2.5335,-2.5387,-2.5417,-2.5471,-2.549,-2.5531,-2.5515,-2.5533,-2.5538,-2.5543,-2.5547,-2.5422,-2.5539,-2.5539,-2.5538,-2.5538,-2.5538,0,-2.5141,-2.5161,-2.5203,-2.5248,-2.5283,-2.527,-2.5304,-2.5335,-2.5382,-2.5411,-2.5448,-2.5503,-2.5547,-2.5566,-2.5609,-2.5638,-2.5634,-2.565,-2.5647,-2.5651,-2.5559,-2.5544,-2.5653,-2.5653,-2.5652,-2.5652,-2.5652,-2.5652,-2.5204,-2.5267,-2.5274,-2.535,-2.5369,-2.5421,-2.5442,-2.5469,-2.5493,-2.5555,-2.5592,-2.5605,-2.563,-2.5675,-2.5715,-2.5719,-2.5736,-2.5754,-2.5756,-2.5669,-2.5658,-2.5647,-2.5632,-2.5757,-2.5758,-2.5844,-2.5845,-2.5846]}]]